Regional Weather Roundup
Issued by NWS

Home | Current Version | Previous Version | Text Only | Print | Product List | Glossary Off
Versions: 1 2 3 4 5 6 7 8 9 10 11 12 13 14 15 16 17 18 19 20 21 22 23 24 25 26 27 28 29 30 31 32 33 34 35 36 37 38 39 40 41 42 43 44 45 46 47 48 49 50

000
ASUS45 KBOU 170807
RWRCO

WEATHER ROUNDUP FOR COLORADO
NATIONAL WEATHER SERVICE DENVER/BOULDER CO
200 AM MDT FRI APR 17 2015

NOTE: "FAIR" INDICATES FEW OR NO CLOUDS BELOW 12000 FEET WITH NO
SIGNIFICANT WEATHER AND/OR OBSTRUCTIONS TO VISIBILITY.

COZ001>005-013-030-031-170900-
...NORTHWEST COLORADO...

CITY           SKY/WX    TMP DP  RH WIND       PRES   REMARKS
CRAIG          CLOUDY    33  31  92 SW3       30.05F
HAYDEN         CLOUDY    34  28  80 SW6       30.05F WCI  29
MEEKER         MOCLDY    36  30  79 MISG      30.04S
MOUNT WERNER   NOT AVBL
STEAMBOAT SPGS CLOUDY    38  29  71 E7        30.03F
WALDEN         CLOUDY    30  28  93 NW5       30.09F WCI  25
$$

COZ006>008-011-170900-
...WEST CENTRAL VALLEYS...

CITY           SKY/WX    TMP DP  RH WIND       PRES   REMARKS
GRAND JUNCTION LGT RAIN  36  36 100 NW7       30.04F
MONTROSE       LGT SNOW  33  32  96 SE13      30.05F VSB 1   WCI  24
EAGLE          CLOUDY    36  34  93 CALM      30.06S
RIFLE          LGT RAIN  38  35  89 N5        30.03F
DELTA          CLOUDY    38  36  89 CALM      30.03F
NUCLA          LGT SNOW  34  32  93 SE3       30.10F
$$

COZ017>023-064>068-170900-
...SOUTHWEST COLORADO...

CITY           SKY/WX    TMP DP  RH WIND       PRES   REMARKS
DURANGO        MOCLDY    30   6  36 CALM      30.05S
CORTEZ         MOCLDY    33  15  47 E3        30.07S
PAGOSA SPRINGS CLOUDY    31  12  45 CALM      30.05F
TELLURIDE      LGT SNOW  24  23  95 CALM      30.04F
WOLF CREEK PAS LGT SNOW  10  10 100 SW13G21   30.04F WCI  -5
$$

COZ009-010-012-014-032>034-037-058>063-170900-
...CENTRAL COLORADO...

CITY           SKY/WX    TMP DP  RH WIND       PRES   REMARKS
ASPEN          LGT SNOW  30  30 100 CALM      30.00F FOG
BUENA VISTA    LGT SNOW  30  28  94 CALM      30.05R VSB 3/4
COPPER MTN     LGT SNOW  25  19  80 E13       30.07F WCI  13
BERTHOUD PASS  SNOW      18   9  68 MISG      30.10F VSB 1/2
COTTONWOOD PAS SNOW      30  28  93 NE3       30.04S VSB 1/2
GUNNISON       CLOUDY    28  25  86 CALM      30.03F
KREMMLING      LGT SNOW  32  30  93 CALM      30.09S
LEADVILLE      FLURRIES  22  21  96 N3        30.01F
MONARCH PASS   CLOUDY    19  18  93 MISG      30.10F
SALIDA         NOT AVBL
SUNLIGHT       LGT SNOW N/A N/A N/A NE5       30.09S VSB 1
WILKERSON PASS CLOUDY   N/A N/A N/A NE12G21   30.08F
$$

COZ069>075-170900-
...SAN LUIS VALLEY/SANGRE DE CRISTO MOUNTAINS...

CITY           SKY/WX    TMP DP  RH WIND       PRES   REMARKS
ALAMOSA        CLOUDY    32  30  92 SE8       30.00S WCI  25
LA VETA PASS   LGT SNOW  23  21  93 MISG      30.03F
SAGUACHE       CLOUDY    30  28  93 E5        30.00S WCI  25
$$

COZ035-036-038>040-170900-
...NORTHERN COLORADO FRONT RANGE...

CITY           SKY/WX    TMP DP  RH WIND       PRES   REMARKS
DENVER INTL AP SNOW      33  33 100 W10       30.08F VSB 1/4 WCI  25
DMNS CITY PARK NOT AVBL
AURORA         NOT AVBL
FRONT RANGE AP MIX PCPN  34  34 100 W10       30.09S WCI  26
ERIE MUNI ARPT LGT SNOW  34  34 100 NW5       30.11S WCI  30
BOULDER MUN AP RAIN      34  34 100 SW5       30.10F WCI  30
CENTENNIAL     LGT SNOW  32  32 100 NW9       30.08F FOG     WCI  24
BROOMFIELD     LGT SNOW  34  34 100 NW12      30.09F WCI  25
FORT COLLINS   CLOUDY    37  36  93 N14       30.11F
LONGMONT       MIX PCPN  40  38  91 N14G20    30.11F
$$

COZ041-046-047-076>085-087-088-170900-
...PIKES PEAK/PALMER DIVIDE AND SOUTHERN FOOTHILLS...

CITY           SKY/WX    TMP DP  RH WIND       PRES   REMARKS
COLO. SPRINGS  FLURRIES  34  32  92 NW14      30.07F WCI  25
A. F. ACADEMY  FRZ RAIN  32  32 100 NW14      30.08R FOG     WCI  22
ELLICOTT       CLOUDY   N/A N/A N/A NE13      30.03F
FALCON         CLOUDY    32  31  94 N13G21    30.07S WCI  22
FORT CARSON    NOT AVBL
LIMON          CLOUDY    38  37  97 NW6       30.07S
MONUMENT HILL  MIX PCPN  30  30 100 NW12      30.07F VSB 3/4 WCI  21
TRINIDAD       CLOUDY    36  35  96 MISG      30.04F FOG
$$

COZ042>045-048>051-090-091-170900-
...NORTHEAST COLORADO...

CITY           SKY/WX    TMP DP  RH WIND       PRES   REMARKS
GREELEY ARPT   CLOUDY    39  34  81 N21G26    30.09F
AKRON          CLOUDY    47  47 100 E6        30.04F
BURLINGTON     CLOUDY    47  42  83 NE13      30.05F
WRAY           DRIZZLE  N/A N/A N/A E10       30.05F
STERLING       RAIN      46  46 100 NE12      30.07S
HOLYOKE        LGT RAIN  54  52  94 E17       30.05F
FORT MORGAN    CLOUDY    46  44  95 NE12G18   30.07F FOG
$$

COZ086-089-092>099-170900-
...SOUTHEAST COLORADO...

CITY           SKY/WX    TMP DP  RH WIND       PRES   REMARKS
PUEBLO         CLOUDY    39  37  92 NW9       30.03F
LA JUNTA       CLOUDY    46  43  89 NE8       30.00F
LAMAR          CLOUDY    51  50  96 E10       29.97R
SPRINGFIELD      N/A     45  44  97 N5        29.98F
$$


USA.gov is the U.S. government's official web portal to all federal, state and local government web resources and services.